Regional Weather Roundup
Issued by NWS Little Rock, AR

Current Version | Previous Version | Text Only | Print | Product List | Glossary On
Versions: 1 2 3 4 5 6 7 8 9 10 11 12 13 14 15 16 17 18 19 20 21 22 23 24 25 26 27 28 29 30 31 32 33 34 35 36 37 38 39 40 41 42 43 44 45 46 47 48 49
000
ASUS44 KLZK 271005
RWRLZK

WEATHER ROUNDUP FOR ARKANSAS
NATIONAL WEATHER SERVICE LITTLE ROCK AR
400 AM CST SAT DEC 27 2014

NOTE: "FAIR" INDICATES FEW OR NO CLOUDS BELOW 12,000 FEET WITH NO
SIGNIFICANT WEATHER AND/OR OBSTRUCTIONS TO VISIBILITY.

ARZ001-003-010-029-271100-
NORTHWEST ARKANSAS

CITY           SKY/WX    TMP DP  RH WIND       PRES   REMARKS
FAYETTEVILLE   CLOUDY    43  42  97 NW6       30.09R
FORT SMITH     CLOUDY    52  50  93 NW5       30.06R FOG
HARRISON       CLOUDY    50  50 100 SE5       30.06R
BENTONVILLE    CLOUDY    43  39  87 NW6       30.09R
ROGERS         LGT RAIN  42  41  96 NW6       30.08R
SILOAM SPGS    CLOUDY    41  36  81 N9        30.10R
HIGHFILL       LGT RAIN  42  32  67 NW9       30.08R
$$

ARZ004-005-016-271100-
NORTH CENTRAL ARKANSAS

CITY           SKY/WX    TMP DP  RH WIND       PRES   REMARKS
BATESVILLE     CLOUDY    52  48  87 SE5       30.09F
FLIPPIN        CLOUDY    48  45  87 CALM      30.06S
MTN HOME       CLOUDY    49  49 100 CALM      30.06S
$$

ARZ040-041-271100-
WEST CENTRAL ARKANSAS

CITY           SKY/WX    TMP DP  RH WIND       PRES   REMARKS
MENA           CLOUDY    55  54  94 E5        30.04S
MOUNT IDA      LGT RAIN  53  52  96 CALM      30.03S FOG
$$

ARZ009-017-025-026-028-271100-
NORTHEAST ARKANSAS

CITY           SKY/WX    TMP DP  RH WIND       PRES   REMARKS
CORNING        PTSUNNY   48  48 100 S6        30.11F FOG
JONESBORO      CLOUDY    49  49 100 S5        30.12F
NEWPORT        LGT RAIN  50  50 100 SE7       30.12S FOG
WALNUT RIDGE   CLOUDY    48  46  93 S8        30.10S
BLYTHEVILLE    CLOUDY    50  48  93 CALM      30.13S
$$

ARZ022-023-033-042-044-271100-
CENTRAL ARKANSAS

CITY           SKY/WX    TMP DP  RH WIND       PRES   REMARKS
LITTLE ROCK    LGT RAIN  54  52  93 S5        30.09F FOG
N LITTLE ROCK    N/A     53  53 100 S6        30.09F
JACKSONVILLE   LGT RAIN  53  53  99 E5        30.08F FOG
SEARCY         RAIN      53  52  96 SE5       30.12R FOG
HOT SPRINGS    LGT RAIN  54  53  97 E6        30.06F FOG
RUSSELLVILLE   CLOUDY    53  52  96 CALM      30.05F
CLINTON        FOG       48  48 100 CALM      30.09F VSB 1/2
$$

ARZ036-271100-
EAST ARKANSAS

CITY           SKY/WX    TMP DP  RH WIND       PRES   REMARKS
WEST MEMPHIS   CLOUDY    52  49  89 S10       30.11S
$$

ARZ050-053-066-070-073-271100-
SOUTHWEST ARKANSAS

CITY           SKY/WX    TMP DP  RH WIND       PRES   REMARKS
ARKADELPHIA    LGT RAIN  55  55 100 CALM      30.07F VSB 3/4
CAMDEN         CLOUDY    57  54  88 MISG      30.07S
TEXARKANA      FOG       57  57 100 SE5       30.04S VSB 3/4
EL DORADO      CLOUDY    57  56  96 SE6       30.05F
DE QUEEN       FOG       55  55 100 CALM      30.03S VSB 3/4
$$

ARZ056-057-069-271100-
SOUTHEAST ARKANSAS

CITY           SKY/WX    TMP DP  RH WIND       PRES   REMARKS
PINE BLUFF     CLOUDY    54  52  93 S5        30.09R
STUTTGART      CLOUDY    54  48  82 CALM      30.10S
MONTICELLO     CLOUDY    55  52  89 SE7       30.08F

$$




USA.gov is the U.S. government's official web portal to all federal, state and local government web resources and services.